Temp
15 16 17 17 18 19 20 20 21 21 22 22 23 23 24 26 27 27 30 32 32 32 31 29 26 27 27 30 31 31 33 32 32 32 30 30 29 29 29 28 27 27 27 26 23
16 17 17 18 18 19 20 20 21 21 22 22 23 23 24 25 25 26 30 32 32 32 31 32 33 31 32 33 33 33 33 33 33 32 30 30 29 29 28 27 25 25 25 24 23
16 16 17 18 19 19 20 20 20 21 22 22 23 24 24 25 27 31 31 32 32 31 32 32 31 33 34 33 34 33 34 33 32 32 31 30 29 29 29 28 27 24 25 24 24
16 16 16 17 17 19 20 20 21 21 22 22 22 23 25 24 34 30 31 32 33 31 31 32 34 34 34 35 34 35 34 33 31 30 30 30 30 29 29 28 28 26 26 25 24
15 16 16 17 18 19 20 20 21 22 22 22 23 23 24 28 31 31 31 31 31 30 32 34 34 34 34 34 34 35 34 32 31 31 31 30 29 29 27 27 26 26 25 25 26
15 15 16 17 18 19 20 21 22 22 22 22 22 23 23 29 30 30 31 31 31 31 32 33 35 34 34 34 36 34 33 32 32 31 31 30 29 30 27 27 26 26 26 26 26
14 15 16 17 19 20 21 22 23 23 23 22 22 22 23 29 30 30 31 32 32 32 34 33 34 35 34 35 34 34 33 32 32 31 30 31 31 30 28 28 27 26 26 26 26
14 14 16 18 19 20 22 23 23 23 22 22 21 20 26 29 29 30 31 32 32 32 32 33 32 34 35 34 34 34 34 33 32 31 30 31 31 29 29 28 28 28 27 27 27
14 14 16 18 19 21 23 24 24 23 21 21 20 21 29 29 29 30 30 33 32 32 32 32 33 33 35 35 35 34 34 33 32 32 31 31 31 31 29 29 29 28 29 28 28
14 14 16 18 19 21 23 23 22 21 20 19 19 23 28 29 27 29 30 31 34 34 34 34 34 35 34 35 34 34 34 34 34 34 32 31 32 31 29 29 29 29 29 29 29
13 14 15 18 20 21 23 22 24 24 21 26 27 26 26 26 27 29 30 32 33 34 34 32 35 35 35 34 34 34 34 34 35 35 33 33 33 31 30 29 30 29 30 30 30
13 14 15 19 20 21 20 22 19 19 22 22 22 23 23 25 28 30 29 33 33 33 32 33 34 34 34 33 34 33 33 34 34 33 33 32 32 32 31 30 30 30 30 30 30
13 14 15 19 20 20 18 19 18 18 21 24 24 24 26 26 29 30 31 32 32 32 32 34 34 33 34 33 34 34 34 34 34 33 32 32 33 31 31 31 30 30 31 30 30
13 13 14 18 18 17 19 19 19 18 25 28 27 27 26 26 30 29 30 33 31 33 32 33 33 33 34 34 35 35 34 34 34 35 34 32 35 31 31 30 30 31 31 31 29
12 12 13 14 15 16 19 19 19 19 28 28 28 27 25 28 29 30 28 32 32 31 32 33 32 32 34 35 35 35 34 33 33 34 33 33 34 35 29 30 31 31 32 31 28
11 13 13 13 13 19 20 20 20 26 27 28 28 28 28 29 30 30 31 31 31 31 31 33 31 33 35 34 35 34 34 32 31 33 34 32 34 36 33 30 30 31 31 30 27
12 15 13 12 18 19 19 22 25 25 26 28 28 28 28 29 30 31 31 31 32 31 31 31 33 33 34 34 33 34 36 34 34 34 35 31 32 36 32 30 29 29 30 29 27
15 17 17 17 18 18 18 25 24 25 25 26 27 27 28 28 29 30 30 31 29 31 30 32 32 33 33 35 35 35 36 35 32 34 34 30 34 37 30 28 27 27 29 27 26
15 15 15 16 17 16 23 24 25 24 25 26 28 27 28 28 29 30 30 31 31 31 32 30 31 31 32 34 35 33 34 34 33 30 33 33 32 33 30 28 27 26 26 27 27
12 12 15 16 16 17 24 22 24 23 25 26 26 27 28 28 29 29 29 30 31 30 32 31 31 31 33 33 32 34 33 34 32 32 33 33 31 35 30 29 27 27 26 26 26
11 19 15 15 16 22 23 24 23 24 24 26 26 27 27 28 28 29 30 31 29 31 31 31 32 32 32 34 34 33 33 31 33 32 34 34 34 34 31 31 29 27 26 26 25
11 21 15 15 21 18 23 22 22 25 25 26 26 26 27 27 28 28 29 30 29 30 30 32 33 32 33 33 32 33 35 35 34 32 31 33 35 29 29 30 28 26 25 25 23
14 15 15 15 22 22 21 23 24 25 25 25 26 26 26 27 27 28 29 30 28 30 31 30 32 31 32 32 30 33 33 34 33 33 31 34 36 26 27 27 26 26 24 22 20
14 20 19 18 17 21 22 23 24 24 24 25 26 26 26 27 27 28 29 31 29 31 27 30 32 32 32 33 34 33 32 31 34 33 34 35 36 28 27 26 25 25 24 21 21
13 16 15 20 21 21 21 22 23 24 24 24 25 25 26 26 27 27 29 30 30 26 28 32 32 31 33 34 33 34 34 31 32 34 34 37 33 36 29 27 26 25 24 22 21
14 15 15 17 17 19 19 22 23 23 23 24 24 25 24 24 27 28 28 29 30 30 30 28 31 28 32 32 31 33 33 33 33 32 32 32 32 29 29 26 24 24 24 24 23
8 9 12 16 18 20 22 22 22 22 24 24 24 23 24 25 25 26 26 27 28 26 29 29 30 29 32 31 31 31 33 33 33 33 34 32 35 27 26 26 25 24 25 24 23
Height
794 791 788 785 782 780 777 773 770 767 764 763 760 758 755 751 749 748 747 747 747 747 748 749 750 751 752 749 747 748 765 776 773 773 776 767 772 768 769 775 778 780 782 787 797
794 792 788 785 782 779 776 773 770 767 764 762 760 757 755 751 748 747 745 743 745 746 748 748 747 748 749 748 749 753 768 768 756 758 768 767 769 771 775 778 786 786 787 793 799
795 792 788 785 782 779 776 773 770 767 764 761 759 756 753 750 749 745 743 741 742 745 747 747 747 746 749 747 749 754 766 758 758 755 759 769 771 768 774 779 778 788 787 793 799
795 792 789 786 782 779 776 773 769 766 763 760 758 756 752 751 761 743 742 739 739 743 746 745 744 749 754 755 748 758 754 755 762 761 763 770 768 774 774 777 772 782 788 792 796
796 792 789 785 782 778 775 771 769 765 763 761 758 756 754 753 746 742 742 741 740 743 744 744 745 749 758 754 751 755 755 757 761 761 765 766 773 775 780 777 779 785 790 791 794
796 792 788 784 780 776 773 769 766 764 762 760 758 757 757 759 743 742 743 743 743 743 742 743 742 743 751 752 751 752 756 763 763 767 768 773 775 771 782 780 783 786 790 792 794
797 792 787 782 778 774 771 768 764 762 760 759 758 757 758 749 742 743 743 742 742 743 741 741 742 743 746 753 748 752 768 766 769 770 774 771 780 781 776 778 784 786 787 790 793
796 792 787 782 777 772 768 763 760 758 758 759 758 758 752 741 741 740 740 740 740 741 741 741 742 743 746 748 754 763 766 785 771 769 772 774 791 779 776 778 783 785 786 788 790
795 790 786 781 776 770 764 759 757 756 757 758 759 759 749 741 740 739 738 738 739 741 741 742 743 749 749 760 771 770 786 783 782 765 769 776 784 773 775 778 782 785 787 789 790
794 789 783 778 773 766 761 757 756 756 757 758 759 761 743 743 741 738 736 737 738 740 743 746 749 757 762 765 794 786 783 779 781 767 767 775 775 770 773 776 780 781 782 785 785
792 787 781 776 771 765 759 758 759 758 757 750 750 750 745 743 740 738 737 737 737 740 754 754 760 770 766 764 766 771 778 781 767 757 766 768 768 769 768 774 778 779 779 779 778
791 785 779 774 769 766 762 763 769 774 763 749 749 748 745 745 745 736 736 739 743 756 754 761 767 758 757 763 768 774 783 779 767 760 763 770 770 765 763 767 769 772 772 770 772
790 785 778 773 768 767 766 768 768 770 768 749 746 745 742 743 741 737 734 737 747 757 757 761 757 755 759 770 773 775 779 777 777 766 763 768 771 771 760 763 765 765 764 769 773
788 783 778 772 772 769 769 768 766 766 768 752 745 740 740 739 740 730 732 735 747 754 758 759 752 758 762 766 762 776 762 768 768 771 785 769 786 774 764 765 764 761 762 766 772
785 782 778 775 774 771 769 766 764 766 781 747 744 737 739 741 737 733 731 733 748 753 754 758 759 760 763 759 756 765 759 767 768 773 778 779 786 761 771 768 762 757 757 765 771
783 779 775 774 771 768 766 765 766 774 783 752 741 743 744 738 735 732 732 731 735 748 751 751 746 749 748 750 751 750 761 770 775 776 791 786 781 764 766 764 757 753 756 763 771
778 774 772 771 767 765 765 764 776 783 757 758 752 746 746 744 739 736 740 744 749 767 767 761 755 747 744 756 753 755 761 788 795 794 791 786 788 759 755 755 758 761 757 762 767
771 767 765 765 765 764 764 765 790 772 766 752 750 750 749 744 742 741 744 750 749 749 766 770 779 753 742 748 755 756 754 780 813 800 791 786 784 753 753 754 757 756 754 763 767
767 764 763 763 761 765 764 776 770 770 760 758 749 754 751 745 744 744 746 747 741 741 758 771 771 746 743 737 741 762 767 753 779 794 791 781 770 749 751 758 761 762 763 764 766
767 764 763 761 761 765 765 775 767 762 757 756 764 755 757 750 748 746 750 738 739 739 732 751 768 750 741 738 744 744 747 770 773 800 802 784 785 763 760 759 762 763 764 766 768
768 762 764 761 764 763 769 766 763 755 757 758 759 758 755 754 750 750 745 733 733 734 736 743 752 758 749 746 749 756 757 766 760 772 779 786 772 737 748 748 754 762 764 765 768
770 761 767 766 764 774 766 765 761 753 752 753 754 754 754 751 749 749 745 736 724 726 742 735 743 763 753 737 740 740 744 745 762 782 777 769 760 743 745 743 748 760 764 767 771
775 773 769 769 764 766 765 760 757 754 754 755 755 751 751 751 756 746 739 720 724 727 733 735 747 766 760 750 748 746 743 741 748 753 774 768 755 749 747 749 752 757 764 772 777
777 767 769 769 771 764 763 762 760 752 753 751 750 748 750 749 744 744 736 721 721 717 723 722 734 744 758 748 735 747 746 746 741 758 751 749 735 751 749 751 754 757 763 772 776
780 780 783 769 767 765 763 763 761 759 751 750 750 751 751 754 746 746 734 723 718 724 724 721 736 737 730 726 731 731 736 744 748 735 744 727 740 717 736 740 747 753 761 768 775
783 785 782 775 775 769 770 762 760 756 756 752 754 748 749 753 740 740 736 731 726 720 724 727 737 741 735 730 733 735 728 731 732 737 738 736 735 723 729 739 750 754 758 763 769
796 795 791 777 772 766 761 760 759 758 750 749 750 752 746 739 735 732 731 727 727 736 728 729 731 740 740 731 737 747 726 725 723 722 719 739 711 725 735 738 744 749 754 760 765
Wind_Speed
21 21 21 20 19 19 19 20 20 19 18 17 17 18 19 22 19 6 3 2 1 8 5 6 4 3 5 2 3 2 1 1 1 1 5 7 4 4 5 11 5 2 7 15 24
22 22 23 22 22 21 21 20 21 20 18 17 16 17 18 21 11 2 5 7 7 9 5 2 2 3 1 0 2 1 1 2 1 5 6 7 3 5 5 7 5 9 14 25 23
24 25 25 24 23 22 22 21 22 20 18 16 16 16 19 14 2 1 6 5 14 11 2 3 1 1 1 1 1 2 3 1 3 7 13 7 5 2 5 2 6 13 21 22 22
25 25 25 25 24 23 22 23 22 21 18 15 14 15 15 5 4 1 10 6 9 14 5 1 2 2 3 2 1 1 6 5 6 6 7 6 6 6 3 4 7 17 21 20 17
26 26 27 26 26 24 24 24 21 20 17 13 12 14 5 2 4 2 11 6 10 11 6 3 1 2 4 3 3 2 3 8 9 10 8 8 5 6 8 11 15 17 18 17 16
26 28 29 28 27 26 26 24 21 20 15 10 9 10 2 2 3 6 8 1 5 6 5 5 1 1 0 3 5 5 10 12 9 7 7 9 6 2 5 12 14 16 16 14 15
27 29 30 29 27 27 26 24 22 18 10 6 5 5 0 9 3 5 10 5 6 7 4 3 2 1 1 2 3 8 10 10 9 6 3 7 3 6 13 13 14 14 13 13 13
28 30 30 29 29 28 27 24 19 12 4 2 2 2 6 3 6 7 5 4 5 6 4 1 3 3 2 2 3 4 4 3 8 8 5 3 1 5 13 14 14 13 11 12 13
29 31 31 30 29 30 25 19 12 2 0 1 0 1 6 6 1 3 2 3 4 3 3 5 1 3 1 3 3 3 1 7 3 10 7 7 3 10 13 14 13 11 10 10 9
30 32 32 30 30 30 19 9 2 2 2 2 1 3 3 1 5 10 3 5 3 5 6 2 2 2 1 1 3 3 1 1 3 9 12 11 10 13 16 15 14 13 12 11 12
31 32 33 30 30 20 20 2 2 2 1 4 1 4 3 9 3 2 0 5 3 2 7 2 6 8 6 3 4 2 3 5 7 4 10 17 12 13 17 15 14 13 13 13 14
32 33 33 28 27 11 9 4 7 2 8 4 9 9 7 2 4 3 3 6 5 7 6 5 10 5 8 6 4 1 2 4 6 7 9 3 12 11 17 19 16 15 15 16 13
31 32 33 29 17 10 6 7 1 7 4 5 3 4 2 9 5 4 7 4 4 8 10 10 4 12 8 9 5 3 3 3 3 2 2 3 4 8 13 13 14 15 14 12 11
31 29 32 29 4 15 1 2 18 7 3 2 1 0 3 2 4 6 6 3 3 9 8 5 5 9 7 7 5 8 7 4 3 5 4 2 3 3 8 14 16 17 16 13 11
29 30 30 22 13 5 3 14 1 3 2 4 1 2 1 4 3 3 3 3 9 7 6 5 7 8 11 12 7 5 2 3 2 2 2 5 3 0 2 9 16 18 16 12 12
31 30 26 9 11 7 7 11 2 2 3 2 1 1 3 3 1 2 4 2 3 5 2 4 1 2 2 7 3 2 3 3 3 2 4 2 6 4 4 2 5 11 13 14 15
35 24 18 12 3 6 13 1 2 3 3 4 3 3 2 5 3 3 8 9 7 7 8 2 5 2 2 2 4 4 4 3 4 3 1 3 5 8 4 4 6 5 7 15 16
30 18 10 13 3 4 2 2 3 1 3 3 4 2 3 4 3 1 5 8 2 3 4 9 7 9 7 9 5 5 7 5 5 3 1 2 4 2 2 3 5 3 7 14 15
22 9 6 3 5 8 2 4 3 4 2 7 6 2 2 2 3 6 4 5 7 9 8 5 6 2 5 6 8 6 5 1 4 1 3 2 4 10 7 2 3 7 11 13 12
15 6 3 8 3 5 2 3 3 3 2 2 3 3 3 3 2 2 6 4 8 11 5 7 2 2 3 4 4 4 10 4 1 5 5 3 3 6 6 8 5 6 9 9 10
3 1 11 7 7 1 4 5 4 5 5 2 2 4 2 2 1 2 4 4 7 12 8 8 6 3 4 6 8 4 4 3 2 1 5 5 4 3 4 12 11 9 9 10 9
4 1 6 2 3 1 4 3 1 2 2 3 2 5 4 3 3 3 5 7 4 12 13 11 10 11 12 1 2 2 2 6 5 5 1 3 4 1 1 10 12 11 11 10 8
2 2 2 5 2 3 1 2 2 1 0 0 3 5 1 3 3 5 5 4 10 10 13 10 7 7 6 5 3 6 5 6 2 2 7 8 6 3 6 10 10 13 12 9 11
1 1 2 1 1 1 1 1 0 3 3 4 4 3 3 4 5 3 3 2 5 9 4 13 8 10 10 6 4 7 7 8 11 5 7 10 12 8 11 13 13 13 12 10 11
3 3 3 1 2 1 2 1 2 2 2 2 3 4 2 3 3 4 4 5 2 4 3 9 11 11 14 13 11 13 9 9 12 11 9 8 11 10 17 19 16 15 13 13 13
3 3 3 2 3 2 2 3 5 3 2 2 3 7 5 5 6 3 5 2 2 1 4 3 2 6 7 10 10 10 9 10 13 9 11 7 11 4 16 16 16 16 16 15 16
5 2 2 1 2 3 3 3 4 2 4 8 5 9 11 9 7 12 12 14 13 6 2 3 6 6 6 6 8 8 14 12 8 9 8 10 7 13 19 19 20 19 17 17 17
Wind_Direction
10 8 6 4 4 4 4 1 358 355 353 349 346 343 342 337 337 334 255 274 344 171 140 131 189 187 182 237 218 135 63 4 118 186 132 145 131 64 103 128 96 104 145 139 153
13 12 10 6 4 3 1 359 356 352 349 346 343 342 342 337 335 268 350 260 184 177 160 200 2 143 135 249 165 266 93 227 53 126 139 155 124 123 155 137 88 99 114 139 154
14 13 10 5 1 359 356 353 351 347 344 343 341 341 339 337 263 114 356 327 211 208 215 318 352 267 93 264 128 53 8 129 100 113 134 127 116 117 149 218 166 161 146 153 161
11 9 6 2 358 354 352 348 345 343 339 339 339 343 340 347 159 202 11 4 181 200 196 267 291 26 28 67 18 339 63 77 118 117 121 126 117 111 31 33 135 151 153 157 170
9 6 2 359 355 351 346 342 339 338 334 336 340 348 3 351 253 164 18 61 131 166 194 197 25 66 12 349 121 349 88 72 115 112 106 118 93 96 83 97 123 142 160 171 176
4 1 358 355 350 345 341 338 334 333 327 334 340 348 31 273 183 191 357 128 164 183 208 184 167 118 73 343 53 93 89 109 128 117 129 126 124 169 121 130 139 158 170 180 184
360 358 355 352 347 341 339 333 327 323 315 325 332 0 60 248 183 245 294 219 202 196 197 213 179 264 314 99 41 137 98 109 134 142 119 151 73 128 149 158 159 172 181 187 199
356 354 351 349 343 339 334 327 320 312 292 287 311 38 253 236 295 289 245 226 204 214 231 235 170 107 1 80 55 97 107 179 183 169 175 312 169 159 166 172 176 183 188 194 205
352 350 347 346 343 338 334 325 316 294 198 230 73 18 269 306 112 330 263 193 163 151 170 113 112 62 49 84 106 47 167 222 162 211 166 212 171 186 182 192 183 186 205 214 211
350 348 345 344 342 339 345 343 36 85 85 74 120 285 261 345 308 307 250 200 161 129 113 192 76 124 84 149 161 147 248 215 256 206 215 206 217 180 186 201 199 194 200 213 222
348 345 342 343 341 343 352 340 311 161 53 247 178 278 269 321 310 251 312 158 128 139 176 121 192 217 161 112 137 178 265 326 286 295 216 226 234 192 191 201 207 207 200 215 225
344 343 340 342 340 350 4 64 94 31 304 261 263 271 271 295 288 260 195 178 173 175 139 164 214 159 153 161 144 204 339 292 286 327 207 250 234 215 200 206 206 208 210 212 215
341 340 338 342 340 3 41 119 81 328 269 297 219 249 268 182 211 244 186 152 145 165 188 210 160 160 153 158 180 190 223 299 313 344 115 196 235 209 222 211 207 218 224 225 218
337 339 339 343 10 343 25 2 320 176 306 278 235 174 159 227 233 210 197 161 141 195 171 221 168 190 184 197 213 276 201 266 301 331 330 321 305 229 231 219 216 220 217 215 198
336 338 334 338 303 293 298 328 84 197 284 13 114 7 143 215 334 156 170 135 163 157 190 175 178 190 218 232 191 247 173 321 29 223 242 177 256 170 300 236 226 221 219 200 180
335 333 325 328 301 275 333 333 189 254 244 28 102 95 161 230 230 135 164 86 129 126 63 168 315 205 209 140 186 140 165 87 84 161 224 115 233 269 221 227 257 230 211 185 165
332 323 308 286 257 291 325 228 241 228 339 6 357 339 246 204 214 179 164 171 170 172 190 161 213 194 194 222 156 189 204 248 242 199 294 52 212 265 213 253 285 299 222 173 171
329 319 293 257 277 349 315 173 221 294 282 330 321 306 199 169 215 149 135 178 121 128 154 201 208 200 178 223 252 186 221 206 246 223 351 140 234 280 185 348 358 343 162 156 171
330 320 298 330 283 217 227 200 226 211 301 327 312 66 53 140 226 194 203 204 198 189 201 163 226 244 217 188 195 159 197 100 141 119 232 172 263 259 234 135 62 111 147 165 165
331 326 353 312 175 155 190 215 235 226 300 310 327 12 24 15 153 184 178 198 205 205 223 190 161 207 142 164 76 246 144 166 208 196 234 190 266 262 183 183 161 156 140 147 153
344 239 353 126 126 160 201 219 238 241 229 249 319 321 311 319 2 198 192 221 212 188 187 161 219 171 218 197 181 155 174 65 122 276 244 243 231 226 191 173 169 153 146 153 159
334 136 358 20 144 327 189 196 251 275 164 273 262 254 261 282 277 240 234 244 198 161 181 185 207 224 229 266 356 241 223 214 234 184 215 292 248 82 160 168 152 145 136 127 125
26 337 20 329 174 186 229 234 258 286 292 314 273 233 177 269 284 232 224 264 163 171 166 174 210 204 204 184 138 222 199 207 184 146 202 221 239 112 140 142 146 144 140 128 127
330 119 99 62 327 62 102 81 312 237 262 228 260 256 241 257 229 286 269 217 199 212 169 176 190 216 222 223 207 203 197 201 217 207 200 223 239 187 176 160 152 151 143 140 135
9 53 1 187 210 284 301 327 295 275 249 248 223 237 30 279 269 228 246 293 110 118 106 190 211 202 232 231 215 236 231 197 210 234 222 232 218 241 182 167 163 154 149 143 143
14 357 354 300 291 209 184 221 222 250 254 233 238 339 316 247 253 312 346 284 341 68 156 183 219 196 240 220 220 239 243 213 227 229 252 255 250 150 158 148 155 160 160 155 154
3 355 295 351 285 229 200 203 230 334 245 261 312 322 297 287 286 282 275 273 275 302 287 209 173 174 231 192 177 240 235 216 214 219 203 213 227 148 163 164 165 166 166 164 161